一网星座-0691 (ONEWEB-0691)

导读

ONEWEB-0691是英国主导的OneWeb低轨互联网星座中的卫星,于2024年10月20日发射。作为OneWeb一期组网完成后补充卫星,它运行在1200公里的近地轨道,属于低轨通信卫星,采用Ku/Ka波段提供服务,单星具备约7.5Gbps通信能力,可支撑全球高速互联网接入,尤其强化高纬度地区覆盖,助力消除全球数字鸿沟,也可拓展军事通信应用场景,星座整体遵循空间碎片减缓规范,寿命终结后会主动离轨。

Basic Information
目录编号:
61599
目录名称:
ONEWEB-0691
国际标识:
2024-188F
轨道中心:
EARTH
卫星名称:
一网星座-0691
卫星全名:
一网星座-0691 (ONEWEB-0691)
卫星状态:
在轨 (已飞行602 天)
发射日期:
2024-10-20 UTC
国别 :
英国 (GB)
星等 :
--
Orbit Information
数据来源 国际轨道数据 AOE轨道数据
星历时间 2026-06-14T20:36:42+0800
3小时前
查看轨道信息
2026-06-13T09:00:00+0800
1天前
查看轨道信息
半长轴 7595.828km 7595.83km
偏心率 0.0002157 0.0002097
轨道倾角 87.891° 87.892°
近地点辐角 79.868° 82.577°
升交点赤经 21.501° 21.797°
平近点角 280.269° 116.296°
近地点 1216.052km 1216.1km
远地点 1219.33km 1219.286km
周期 109.805分钟 109.805分钟
每日圈数 13.11415 13.114143
Detailed Information
卫星平台:
0691
平衡模式:
三轴稳定
覆盖范围:
全球
运营商:
一网卫星公司
运营商所在国:
英国
制造商(研发单位):
空客防务与航天公司
制造商所在国:
法国大都会
使用方式:
暂无
Satellite Introduction
OneWeb 计划是一项全球卫星互联网项目,旨在通过发射低轨道卫星,为全球偏远和无法接入互联网的地区提供高速网络连接。OneWeb 的目标是打造一个由数百颗卫星组成的网络,帮助缩小全球数字鸿沟,推动教育、医疗和经济发展。
2D Orbit Map
3D Orbit Map
Orbit Altitude Analysis Chart
Orbit Inclination Analysis Chart
Orbit Comprehensive Analysis Chart
View Comprehensive Chart